Location: Kuffner-Sternwarte
(48.2130°N, 16.2960°E)
Time: 18:54:44
(UTC+02:00)

COROT - Visible Passes

Search period start: 26 March 2017 00:00
Search period end: 05 April 2017 01:00
Orbit: 600 x 890 km, 90.0° (Epoch: 24 March)

Date Brightness Start Highest point End Pass type
(mag) Time Alt. Az. Time Alt. Az. Time Alt. Az.
26 Mar 8.4 00:21:54 10° N 00:23:07 18° N 00:23:07 18° N visible
26 Mar 8.5 03:02:47 10° NNW 03:02:54 10° NW 03:02:54 10° NW visible
27 Mar 8.5 00:39:17 10° NNE 00:40:14 15° NNE 00:40:14 15° NNE visible
27 Mar 8.3 02:18:51 10° NNW 02:20:01 17° NNW 02:20:01 17° NNW visible
28 Mar 8.2 01:35:34 10° N 01:37:09 21° N 01:37:09 21° N visible
29 Mar 8.2 00:52:41 10° NNE 00:54:16 20° NNE 00:54:16 20° NNE visible
29 Mar 8.3 02:32:54 10° NNW 02:34:04 15° NNW 02:34:04 15° NNW visible
30 Mar 8.5 00:10:18 10° NNE 00:11:24 15° NE 00:11:24 15° NE visible
30 Mar 8.1 01:49:21 10° N 01:51:12 23° NNW 01:51:12 23° NNW visible
31 Mar 8.0 01:06:16 10° N 01:08:20 25° N 01:08:20 25° N visible
31 Mar 8.4 02:47:13 10° NNW 02:48:08 13° NW 02:48:08 13° NW visible
01 Apr 8.1 00:23:34 10° NNE 00:25:28 21° NNE 00:25:28 21° NNE visible
01 Apr 8.0 02:03:16 10° NNW 02:05:16 22° NNW 02:05:16 22° NNW visible
01 Apr 8.5 23:41:31 10° NE 23:42:37 14° NE 23:42:37 14° NE visible
02 Apr 7.8 01:19:57 10° N 01:22:24 29° N 01:22:24 29° N visible
03 Apr 7.8 00:37:02 10° N 00:39:33 28° NNE 00:39:33 28° NNE visible
03 Apr 8.1 02:17:21 10° NNW 02:19:21 19° NW 02:19:21 19° NW visible
03 Apr 8.1 23:54:34 10° NNE 23:56:42 20° NE 23:56:42 20° NE visible
04 Apr 7.7 01:33:46 10° N 01:36:29 29° NNW 01:36:29 29° NNW visible
04 Apr 8.5 23:13:06 10° NE 23:13:50 12° NE 23:13:50 12° NE visible
